Radiation Dose at Monitoring Post of Fukushima Daini Nuclear Power Station
Date,Time,MP-1(microSv/h),MP-2(microSv/h),MP-3(microSv/h),MP-4(microSv/h),MP-5(microSv/h),MP-6(microSv/h),MP-7(microSv/h),Wind Direction,Wind Velocity(m/s),Rain
2018/05/23,00:00,0.316,0.197,0.324,0.310,0.301,0.159,0.096,south-southwest,9.6,No
2018/05/23,00:10,0.316,0.198,0.322,0.307,0.301,0.159,0.097,south-southwest,9.5,No
2018/05/23,00:20,0.316,0.197,0.325,0.309,0.301,0.160,0.097,south-southwest,9.6,No
2018/05/23,00:30,0.317,0.198,0.323,0.307,0.300,0.159,0.097,south-southwest,10.1,No
2018/05/23,00:40,0.316,0.197,0.324,0.309,0.300,0.159,0.097,south-southwest,10.7,No
2018/05/23,00:50,0.317,0.197,0.323,0.309,0.300,0.159,0.097,south-southwest,10.9,No
2018/05/23,01:00,0.315,0.197,0.325,0.309,0.301,0.159,0.097,south-southwest,9.3,No
2018/05/23,01:10,0.316,0.196,0.322,0.308,0.300,0.159,0.097,south-southwest,10.6,No
2018/05/23,01:20,0.314,0.198,0.325,0.309,0.303,0.158,0.098,south-southwest,9.6,No
2018/05/23,01:30,0.317,0.197,0.324,0.308,0.299,0.158,0.097,south-southwest,9.8,No
2018/05/23,01:40,0.316,0.197,0.324,0.309,0.302,0.159,0.096,south-southwest,9.2,No
2018/05/23,01:50,0.314,0.197,0.323,0.309,0.299,0.159,0.097,south-southwest,9.8,No
2018/05/23,02:00,0.316,0.197,0.323,0.309,0.302,0.159,0.096,south-southwest,10.0,No
2018/05/23,02:10,0.316,0.198,0.326,0.309,0.301,0.159,0.097,south-southwest,10.3,No
2018/05/23,02:20,0.316,0.198,0.322,0.308,0.301,0.159,0.097,south-southwest,10.1,No
2018/05/23,02:30,0.316,0.197,0.325,0.310,0.300,0.160,0.096,south-southwest,9.6,No
2018/05/23,02:40,0.317,0.199,0.323,0.308,0.300,0.158,0.097,south-southwest,10.3,No
2018/05/23,02:50,0.314,0.196,0.326,0.311,0.301,0.159,0.097,south-southwest,9.5,No
2018/05/23,03:00,0.315,0.197,0.321,0.308,0.301,0.158,0.098,south-southwest,9.0,No
2018/05/23,03:10,0.315,0.197,0.323,0.310,0.302,0.158,0.097,south-southwest,9.3,No
2018/05/23,03:20,0.316,0.197,0.323,0.309,0.300,0.159,0.097,south-southwest,9.5,No
2018/05/23,03:30,0.315,0.198,0.324,0.310,0.300,0.158,0.097,south-southwest,10.1,No
2018/05/23,03:40,0.315,0.197,0.325,0.307,0.299,0.160,0.098,south-southwest,9.3,No
2018/05/23,03:50,0.316,0.196,0.323,0.310,0.302,0.158,0.097,south-southwest,10.0,No
2018/05/23,04:00,0.315,0.198,0.324,0.308,0.299,0.159,0.097,south-southwest,9.2,No
2018/05/23,04:10,0.317,0.197,0.322,0.311,0.302,0.159,0.097,south-southwest,8.6,No
2018/05/23,04:20,0.315,0.197,0.324,0.309,0.299,0.160,0.097,south-southwest,8.5,No
2018/05/23,04:30,0.317,0.195,0.324,0.309,0.301,0.158,0.097,south-southwest,8.2,No
2018/05/23,04:40,0.314,0.196,0.325,0.308,0.299,0.159,0.097,south-southwest,8.1,No
2018/05/23,04:50,0.316,0.197,0.321,0.309,0.302,0.159,0.098,south-southwest,7.6,No
2018/05/23,05:00,0.315,0.196,0.324,0.308,0.299,0.159,0.098,south-southwest,8.8,No
2018/05/23,05:10,0.316,0.197,0.322,0.307,0.300,0.159,0.097,south-southwest,8.5,No
2018/05/23,05:20,0.314,0.196,0.324,0.308,0.298,0.160,0.096,south-southwest,8.8,No
2018/05/23,05:30,0.315,0.196,0.321,0.308,0.301,0.158,0.096,south-southwest,8.1,No
2018/05/23,05:40,0.316,0.197,0.325,0.309,0.298,0.159,0.097,south-southwest,7.9,No
2018/05/23,05:50,0.316,0.197,0.323,0.310,0.302,0.159,0.097,south-southwest,7.2,No
2018/05/23,06:00,0.314,0.197,0.324,0.308,0.299,0.160,0.098,south-southwest,6.4,No
2018/05/23,06:10,0.315,0.196,0.323,0.308,0.301,0.158,0.097,south-southwest,5.1,No
2018/05/23,06:20,0.315,0.196,0.324,0.308,0.299,0.160,0.097,south-southwest,3.8,No
2018/05/23,06:30,0.316,0.197,0.321,0.309,0.301,0.159,0.096,south-southwest,7.2,No
2018/05/23,06:40,0.314,0.196,0.323,0.308,0.299,0.158,0.096,south-southwest,2.6,No
2018/05/23,06:50,0.315,0.197,0.322,0.309,0.298,0.160,0.097,south-southwest,3.0,No
2018/05/23,07:00,0.313,0.196,0.325,0.305,0.299,0.159,0.096,south-southwest,5.4,No
2018/05/23,07:10,0.316,0.197,0.322,0.311,0.298,0.160,0.097,south,4.9,No
2018/05/23,07:20,0.315,0.197,0.321,0.307,0.302,0.158,0.097,south-southwest,6.8,No
2018/05/23,07:30,0.313,0.196,0.324,0.307,0.298,0.159,0.096,south-southwest,4.2,No
2018/05/23,07:40,0.315,0.197,0.320,0.309,0.299,0.160,0.097,south-southwest,8.1,No
2018/05/23,07:50,0.314,0.197,0.323,0.306,0.302,0.158,0.096,south-southwest,7.4,No
2018/05/23,08:00,0.315,0.196,0.322,0.309,0.299,0.159,0.096,south-southwest,6.0,No
2018/05/23,08:10,0.317,0.197,0.321,0.309,0.299,0.160,0.096,south-southwest,6.0,No
2018/05/23,08:20,0.315,0.198,0.325,0.306,0.301,0.158,0.096,south-southwest,8.1,No
2018/05/23,08:30,0.316,0.195,0.322,0.311,0.298,0.160,0.096,south,9.2,No
2018/05/23,08:40,0.317,0.198,0.322,0.308,0.300,0.158,0.097,south,8.4,No
2018/05/23,08:50,0.314,0.196,0.324,0.308,0.302,0.158,0.097,south,7.6,No
2018/05/23,09:00,0.315,0.196,0.321,0.311,0.299,0.159,0.097,south,8.3,No
2018/05/23,09:10,0.317,0.198,0.324,0.308,0.300,0.159,0.096,south,9.2,No
2018/05/23,09:20,0.313,0.198,0.325,0.306,0.302,0.158,0.097,south,9.2,No
2018/05/23,09:30,0.314,0.195,0.321,0.310,0.298,0.158,0.097,south,8.3,No
2018/05/23,09:40,0.317,0.196,0.325,0.309,0.298,0.157,0.096,south,8.3,No
2018/05/23,09:50,0.315,0.198,0.322,0.307,0.301,-,0.097,south,9.0,No
2018/05/23,10:00,0.313,0.196,0.322,0.310,0.301,-,0.097,south,9.6,No
2018/05/23,10:10,0.318,0.197,0.325,0.309,0.297,-,0.096,south,10.0,No
2018/05/23,10:20,0.315,0.198,0.322,0.306,0.300,-,0.096,south,10.4,No
2018/05/23,10:30,0.313,0.197,0.321,0.311,0.302,-,0.097,south,10.7,No
2018/05/23,10:40,0.317,0.196,0.325,0.309,0.298,-,0.097,south,11.2,No
2018/05/23,10:50,0.315,0.197,0.320,0.306,0.299,-,0.096,south,12.3,No
2018/05/23,11:00,0.313,0.198,0.323,0.310,0.302,-,0.098,south,11.7,No
2018/05/23,11:10,0.316,0.196,0.326,0.309,0.299,-,0.096,south,11.2,No
2018/05/23,11:20,0.316,0.197,0.323,0.307,0.298,-,0.097,south,9.8,No
2018/05/23,11:30,0.314,0.198,0.321,0.309,0.299,-,0.097,south-southeast,9.5,No
2018/05/23,11:40,0.312,0.197,0.322,0.311,0.300,-,0.097,south,9.5,No
2018/05/23,11:50,0.316,0.197,0.326,0.308,0.298,-,0.096,south-southeast,7.6,No
2018/05/23,12:00,0.318,0.196,0.324,0.307,0.298,-,0.097,south,9.8,No
2018/05/23,12:10,0.316,0.197,0.325,0.311,0.303,-,0.097,south,11.8,No
2018/05/23,12:20,0.315,0.197,0.326,0.308,0.301,-,0.096,south,11.2,No
2018/05/23,12:30,0.319,0.198,0.323,0.311,0.298,-,0.097,south,11.5,No
2018/05/23,12:40,0.315,0.198,0.325,0.312,0.303,-,0.097,south,12.5,No
2018/05/23,12:50,0.317,0.196,0.322,0.309,0.299,-,0.097,south,10.6,No
2018/05/23,13:00,0.318,0.199,0.325,0.312,0.301,-,0.097,south,10.6,No
2018/05/23,13:10,0.314,0.197,0.326,0.309,0.301,-,0.097,south,10.6,No
2018/05/23,13:20,0.318,0.197,0.323,0.311,0.298,-,0.097,south,10.6,No
2018/05/23,13:30,0.316,0.199,0.326,0.310,0.302,-,0.097,south,11.2,No
2018/05/23,13:40,0.315,0.196,0.323,0.308,0.300,-,0.096,south,11.5,No
2018/05/23,13:50,0.317,0.199,0.324,0.312,0.299,-,0.098,south,11.2,No
2018/05/23,14:00,0.315,0.198,0.325,0.309,0.301,-,0.097,south,10.6,No
2018/05/23,14:10,0.315,0.196,0.324,0.312,0.299,-,0.097,south,11.5,No
2018/05/23,14:20,0.318,0.199,0.325,0.310,0.304,-,0.097,south,11.4,No
2018/05/23,14:30,0.315,0.196,0.322,0.310,0.301,-,0.097,south,12.0,No
2018/05/23,14:40,0.317,0.197,0.326,0.312,0.299,-,0.097,south,13.1,No
2018/05/23,14:50,0.318,0.197,0.325,0.310,0.302,-,0.096,south,12.2,No
2018/05/23,15:00,0.315,0.197,0.325,0.311,0.299,-,0.097,south,12.0,Yes
2018/05/23,15:10,0.317,0.198,0.326,0.309,0.303,-,0.098,south,11.2,No
2018/05/23,15:20,0.316,0.197,0.324,0.310,0.302,0.157,0.097,south,10.3,No
2018/05/23,15:30,0.316,0.199,0.327,0.311,0.300,0.160,0.098,south,10.7,No
2018/05/23,15:40,0.317,0.197,0.324,0.308,0.302,0.159,0.097,south,10.6,No
2018/05/23,15:50,0.315,0.198,0.327,0.312,0.302,0.160,0.098,south,9.3,No
2018/05/23,16:00,0.317,0.199,0.325,0.309,0.304,0.159,0.097,south,10.9,No
2018/05/23,16:10,0.315,0.197,0.325,0.312,0.301,0.160,0.096,south,9.2,No
2018/05/23,16:20,0.319,0.198,0.325,0.309,0.302,0.160,0.097,south,9.2,Yes
2018/05/23,16:30,0.314,0.198,0.324,0.310,0.300,0.160,0.096,south,9.3,No
2018/05/23,16:40,0.317,0.197,0.326,0.312,0.302,0.160,0.098,south,7.1,Yes
2018/05/23,16:50,0.318,0.198,0.324,0.309,0.300,0.159,0.097,south,8.8,Yes
2018/05/23,17:00,0.316,0.197,0.327,0.312,0.300,0.160,0.097,south-southwest,6.8,No
2018/05/23,17:10,0.319,0.196,0.323,0.309,0.301,0.159,0.097,south-southwest,7.4,Yes
2018/05/23,17:20,0.315,0.198,0.326,0.312,0.299,0.160,0.098,south-southwest,6.7,Yes
2018/05/23,17:30,0.317,0.197,0.325,0.310,0.302,0.160,0.097,south-southwest,5.2,No
2018/05/23,17:40,0.317,0.199,0.324,0.311,0.300,0.160,0.097,south-southwest,6.5,No
2018/05/23,17:50,0.316,0.198,0.325,0.311,0.303,0.161,0.098,south-southwest,6.8,No
2018/05/23,18:00,0.317,0.197,0.325,0.309,0.301,0.159,0.097,southwest,5.2,Yes
2018/05/23,18:10,0.315,0.198,0.326,0.313,0.302,0.160,0.098,south-southwest,6.2,No
2018/05/23,18:20,0.319,0.198,0.324,0.310,0.301,0.160,0.096,south-southwest,5.3,Yes
2018/05/23,18:30,0.314,0.200,0.327,0.312,0.301,0.160,0.098,south-southwest,4.0,Yes
2018/05/23,18:40,0.319,0.199,0.325,0.309,0.303,0.160,0.097,south-southwest,4.0,Yes
2018/05/23,18:50,0.315,0.200,0.328,0.314,0.301,0.159,0.098,south-southwest,6.9,Yes
2018/05/23,19:00,0.316,0.198,0.324,0.310,0.302,0.160,0.097,south,7.1,Yes
2018/05/23,19:10,0.318,0.198,0.326,0.313,0.299,0.159,0.097,south-southwest,6.0,Yes
2018/05/23,19:20,0.316,0.196,0.325,0.309,0.302,0.160,0.098,south-southwest,5.9,Yes
2018/05/23,19:30,0.317,0.199,0.327,0.313,0.299,0.158,0.098,south-southwest,5.9,Yes
2018/05/23,19:40,0.316,0.197,0.325,0.309,0.301,0.160,0.097,south,5.2,Yes
2018/05/23,19:50,0.317,0.199,0.325,0.311,0.299,0.160,0.098,south,5.1,Yes
2018/05/23,20:00,0.315,0.198,0.326,0.310,0.302,0.161,0.098,south-southwest,4.9,Yes
2018/05/23,20:10,0.319,0.199,0.324,0.312,0.299,0.161,0.099,south-southwest,5.1,Yes
2018/05/23,20:20,0.316,0.198,0.325,0.309,0.301,0.161,0.098,south-southwest,4.9,Yes
2018/05/23,20:30,0.317,0.199,0.324,0.309,0.299,0.160,0.099,south-southwest,4.4,Yes
2018/05/23,20:40,0.315,0.197,0.322,0.308,0.298,0.162,0.098,south-southwest,3.9,Yes
2018/05/23,20:50,0.317,0.198,0.324,0.308,0.299,0.161,0.098,southwest,2.0,Yes
2018/05/23,21:00,0.314,0.197,0.322,0.307,0.298,0.160,0.099,west-southwest,2.1,Yes
2018/05/23,21:10,0.315,0.198,0.323,0.308,0.299,0.161,0.099,west-southwest,1.6,Yes
2018/05/23,21:20,0.313,0.198,0.323,0.305,0.298,0.160,0.099,west-southwest,1.7,Yes
2018/05/23,21:30,0.314,0.197,0.321,0.308,0.298,0.160,0.099,west-southwest,1.4,Yes
2018/05/23,21:40,0.311,0.196,0.320,0.305,0.296,0.159,0.098,west,0.9,Yes
2018/05/23,21:50,0.314,0.196,0.320,0.306,0.298,0.161,0.099,north-northwest,0.8,Yes
2018/05/23,22:00,0.310,0.197,0.318,0.302,0.295,0.159,0.099,west-northwest,0.9,Yes
2018/05/23,22:10,0.312,0.196,0.318,0.304,0.297,0.158,0.099,north,0.8,Yes
2018/05/23,22:20,0.310,0.196,0.317,0.301,0.297,0.158,0.099,-,CALM,Yes
2018/05/23,22:30,0.312,0.194,0.319,0.304,0.297,0.158,0.099,north,0.7,Yes
2018/05/23,22:40,0.310,0.195,0.314,0.302,0.296,0.157,0.098,north-northwest,0.6,Yes
2018/05/23,22:50,0.310,0.195,0.318,0.302,0.297,0.159,0.098,north-northwest,2.2,Yes
2018/05/23,23:00,0.309,0.195,0.313,0.301,0.295,0.158,0.097,west-southwest,6.1,Yes
2018/05/23,23:10,0.304,0.192,0.309,0.293,0.291,0.155,0.098,northeast,12.6,Yes
2018/05/23,23:20,0.299,0.191,0.304,0.289,0.291,0.152,0.096,west,1.5,Yes
2018/05/23,23:30,0.301,0.192,0.307,0.291,0.293,0.155,0.097,east-southeast,2.0,Yes
2018/05/23,23:40,0.298,0.192,0.304,0.287,0.292,0.152,0.097,-,CALM,Yes
2018/05/23,23:50,0.299,0.191,0.307,0.290,0.293,0.153,0.097,southwest,1.2,Yes
